EHI
3 2 3 3 3 3 3 3 3 3 2 2 3 3 3 3 3 3 2 1 0 0 0 0 0 1 2 2 3 2 1 0 1 2 3 2 2 2 2 2 1 0 0
3 3 3 3 3 3 3 3 3 3 1 1 2 3 3 3 2 2 2 2 2 1 1 0 0 0 1 1 2 1 1 0 0 1 2 1 1 1 1 2 1 0 0
4 4 4 3 3 3 3 3 3 2 1 1 1 2 2 2 2 2 3 3 3 3 2 1 0 0 0 0 0 1 1 0 0 0 0 0 0 0 0 1 1 0 0
4 5 4 3 3 3 3 3 3 1 1 2 2 3 3 3 3 3 3 3 4 3 3 2 1 0 0 0 0 0 0 0 0 0 0 0 0 0 0 0 0 0 0
4 5 5 4 3 3 3 3 3 1 1 2 3 3 3 4 4 4 3 3 3 3 3 2 1 1 1 1 0 0 0 0 0 0 0 0 0 0 0 0 0 0 0
4 5 7 6 4 3 4 3 3 3 2 3 3 3 4 4 5 4 3 3 3 3 2 1 1 2 3 2 1 1 0 0 0 0 0 0 0 0 0 0 0 0 0
3 5 7 7 6 5 5 4 4 4 4 4 3 4 5 6 6 5 5 4 4 4 4 4 4 4 4 3 3 2 1 0 0 0 0 0 0 0 0 0 0 1 1
6 6 6 8 8 7 7 6 4 5 5 4 3 4 7 7 7 7 7 8 7 7 8 8 7 6 5 4 3 2 1 0 0 0 0 0 0 0 0 0 1 2 2
7 6 5 7 8 7 7 6 5 5 5 3 3 4 6 9 9 8 9 10 10 9 10 10 9 7 6 5 4 2 1 1 0 0 0 0 1 1 0 0 1 2 3
5 5 4 5 6 6 6 6 6 6 5 4 3 3 6 9 10 9 9 9 9 9 10 10 9 7 7 6 5 3 2 2 1 1 1 1 2 1 0 0 1 2 3
5 5 5 6 6 8 9 8 7 7 7 6 4 4 6 10 11 9 8 7 8 9 10 11 10 9 7 6 4 3 3 3 3 3 3 3 2 1 0 0 0 1 2
5 6 8 8 9 11 13 12 10 9 10 9 8 6 8 12 13 11 8 7 6 8 10 10 10 9 8 6 4 3 4 4 4 4 4 4 2 1 0 0 0 1 2
4 6 7 8 9 13 17 17 14 13 13 13 11 9 9 11 13 12 10 8 7 8 8 8 8 9 9 7 4 3 4 4 4 4 4 3 2 1 0 0 0 0 1
5 5 5 5 7 12 18 20 19 16 15 14 14 12 10 10 11 11 10 9 8 8 7 7 7 8 8 7 5 3 4 4 5 4 3 1 1 0 0 0 0 0 0
5 4 3 3 6 11 15 20 21 19 16 15 15 14 12 11 11 10 9 8 8 7 7 6 6 7 7 6 4 3 3 4 4 4 2 1 0 0 0 0 0 0 0
5 4 3 3 6 9 12 18 21 19 16 15 15 14 14 13 11 8 7 7 7 6 6 6 6 6 6 4 2 1 2 3 3 2 1 0 0 0 0 0 0 0 0
5 4 3 4 5 7 11 15 18 17 15 13 13 14 14 13 11 8 6 7 7 6 6 6 6 6 5 2 0 0 1 2 2 1 0 0 0 0 0 0 0 0 0
4 5 5 5 5 7 10 13 15 15 13 11 11 12 12 10 8 6 6 6 7 6 6 6 6 6 4 1 0 0 0 1 1 0 0 0 0 0 0 0 0 0 0
5 6 6 5 5 9 12 13 13 13 12 11 10 10 10 7 4 4 5 6 6 6 6 6 6 5 3 1 0 0 0 0 0 0 0 0 0 0 0 0 0 0 0
6 6 5 4 5 9 12 13 13 13 13 12 10 9 8 5 3 3 4 5 6 7 7 6 5 4 2 1 0 0 0 0 0 0 0 0 0 0 0 0 0 0 0
6 6 5 4 5 8 11 13 13 13 13 12 10 9 8 6 4 4 4 5 6 7 7 6 5 4 2 0 0 0 0 0 0 1 1 1 0 0 0 0 0 0 0
6 6 5 4 4 6 9 11 11 11 12 12 10 8 8 7 6 6 6 6 7 8 8 8 6 5 3 2 0 0 0 0 0 1 2 2 0 0 0 0 0 0 0
6 5 4 3 2 4 6 8 8 9 11 11 9 8 8 7 7 8 8 8 8 10 11 9 7 6 6 4 3 1 0 0 0 1 2 1 0 0 0 0 0 0 0
5 4 3 3 3 4 6 6 7 8 9 9 8 8 7 6 6 7 8 8 8 10 12 11 10 8 8 7 5 4 2 1 1 1 1 0 0 0 0 0 0 0 0
2 2 3 3 5 6 6 6 7 7 7 6 6 6 6 5 4 4 4 4 5 7 8 9 10 10 8 6 4 3 2 2 1 0 0 0 0 0 0 0 0 0 0
0 1 2 3 5 7 6 5 6 7 6 4 4 5 6 5 4 3 2 1 2 3 4 5 8 9 6 3 2 1 1 1 1 0 0 0 0 0 0 0 0 0 0
Wind_Speed
5 4 5 5 4 3 3 4 3 2 2 1 1 1 1 1 0 1 1 1 1 2 2 2 2 2 2 2 2 2 2 1 1 1 1 1 1 1 1 1 1 2 2
4 5 5 5 5 5 5 4 4 3 3 2 2 2 1 1 1 1 0 1 2 2 2 3 3 3 3 3 2 2 2 1 1 2 1 1 2 2 1 1 1 2 2
7 7 7 7 6 6 6 6 5 4 3 3 2 1 1 1 1 0 0 1 2 2 2 3 3 3 3 3 3 3 3 1 1 1 2 2 1 2 2 1 1 1 1
6 7 7 7 8 7 6 5 5 4 4 4 3 3 2 2 2 1 1 0 0 1 2 3 3 3 3 3 3 3 2 3 2 1 1 1 2 1 1 2 2 1 1
7 9 9 9 7 6 6 5 4 4 4 4 5 4 3 2 1 0 1 0 0 0 1 2 2 2 2 2 2 2 3 2 2 2 1 1 1 1 1 2 2 2 1
6 7 7 6 5 5 5 5 5 4 4 4 4 5 4 3 2 1 1 1 1 0 1 2 2 2 2 2 2 2 3 2 2 2 2 2 2 2 2 3 2 2 2
6 6 7 7 6 7 6 6 6 5 4 4 4 5 5 4 4 3 3 2 1 2 2 2 2 2 2 2 2 2 2 2 2 3 2 2 2 2 2 2 2 2 2
6 7 8 8 7 8 7 7 6 5 5 5 4 4 4 3 3 3 3 3 3 3 3 3 2 2 2 2 2 2 2 2 2 3 3 2 2 2 3 3 2 1 2
7 7 7 7 7 7 7 7 7 5 5 5 4 4 4 3 3 3 3 2 2 3 3 3 3 2 2 2 2 2 2 2 2 2 2 2 2 2 2 2 3 3 2
5 5 6 6 6 6 6 6 6 6 5 5 5 4 4 4 3 2 3 2 3 2 3 3 3 2 2 2 2 2 1 2 2 1 1 1 1 1 2 2 2 2 3
5 5 5 5 5 5 5 6 6 5 4 4 4 4 4 3 3 3 3 2 2 3 3 3 3 2 2 2 2 2 2 2 2 1 2 2 1 1 1 1 1 2 2
4 4 5 5 5 5 5 6 6 6 6 5 4 4 4 3 3 3 3 2 2 2 3 3 3 3 2 2 3 3 2 3 3 2 2 2 1 1 1 1 2 2 2
2 2 3 4 5 5 5 6 6 6 5 5 4 4 4 4 4 3 3 3 3 3 2 3 3 3 3 3 3 3 3 3 3 3 3 3 2 2 1 2 2 2 2
1 1 2 3 4 4 5 5 6 5 5 5 5 5 5 5 5 4 3 3 3 3 3 3 3 3 3 4 4 3 3 3 3 3 4 3 4 3 3 2 2 2 2
1 1 2 3 3 3 4 4 5 5 5 5 5 6 5 4 3 3 3 3 3 4 4 3 3 3 3 4 4 4 4 4 3 3 3 3 4 4 3 2 3 3 2
2 2 2 2 3 3 4 4 4 4 5 5 5 4 3 3 3 3 3 3 3 3 3 3 4 4 4 4 4 4 4 4 4 4 3 3 3 4 4 4 4 4 4
2 3 2 2 2 2 3 4 4 4 4 5 4 4 4 4 4 4 3 3 3 3 3 4 4 4 5 5 4 4 3 3 4 4 3 3 3 3 3 3 3 4 4
3 3 2 2 1 1 1 1 2 3 3 4 3 4 4 4 4 4 4 4 3 3 3 4 4 4 4 4 4 4 3 3 3 4 4 4 3 4 4 3 3 3 3
2 2 2 1 0 1 2 2 2 3 3 3 3 3 4 4 4 4 4 4 3 3 3 3 4 4 4 4 4 3 2 2 3 4 4 4 4 5 4 4 4 3 3
1 1 1 1 1 0 2 3 2 3 3 3 3 3 3 4 4 5 4 3 3 4 3 3 3 4 4 4 4 4 2 2 3 2 3 4 5 4 5 4 5 5 4
1 1 1 1 0 1 2 2 2 3 3 2 2 2 2 3 3 3 2 2 2 2 2 2 2 3 4 4 4 5 3 3 3 3 3 3 4 5 6 5 5 6 4
1 1 1 1 1 1 2 2 2 2 1 2 2 2 1 1 1 2 2 2 3 2 2 2 2 2 2 3 4 5 5 5 4 4 3 3 4 4 5 5 5 5 3
1 1 1 0 1 0 2 3 2 1 1 2 2 2 2 2 2 2 2 2 2 2 2 2 3 3 2 2 4 5 6 6 4 3 4 3 3 3 3 4 4 4 3
2 1 0 0 1 1 1 2 1 0 1 1 1 2 2 2 1 1 2 2 3 3 3 3 3 3 3 3 3 3 3 4 4 3 2 2 2 2 1 1 2 2 2
1 1 1 1 2 1 1 0 1 1 1 1 1 1 1 2 2 2 2 3 3 4 4 4 4 4 4 5 5 4 3 3 3 2 1 1 1 1 1 1 2 2 2
1 1 1 1 2 1 1 1 2 2 2 1 2 2 2 2 2 2 2 2 3 3 5 6 5 4 6 5 5 5 5 5 4 3 2 2 2 3 3 2 2 2 3
Wind_Direction
214 188 184 176 164 166 163 168 168 171 156 143 147 164 216 251 275 244 231 206 190 181 171 171 159 159 159 167 159 146 138 121 115 89 8 349 329 273 266 280 290 298 287
196 187 182 179 181 184 183 180 182 175 179 180 168 164 155 180 213 248 243 208 188 178 175 169 168 166 159 154 158 150 151 155 139 136 101 351 349 346 337 316 290 298 298
204 198 190 190 189 193 192 192 188 179 179 172 133 98 79 47 30 309 269 245 196 176 166 164 162 164 165 172 176 166 158 165 162 147 151 151 240 314 330 319 301 307 305
201 194 191 193 197 200 191 187 184 180 176 164 157 160 169 199 223 219 225 265 183 167 160 159 160 162 164 169 182 171 171 161 180 185 185 172 163 176 315 323 322 332 323
203 195 195 196 196 188 183 184 179 182 178 174 174 170 185 206 211 172 146 184 139 149 151 154 153 163 171 174 177 171 174 179 180 177 162 160 161 179 203 282 315 330 312
205 196 190 181 182 177 179 175 175 189 187 183 182 181 184 183 171 181 191 208 202 206 185 165 163 171 182 185 188 185 179 187 182 183 176 172 182 196 198 233 267 292 298
200 190 183 185 186 183 182 175 178 190 190 186 190 192 188 183 189 196 199 199 205 213 214 197 184 182 196 200 189 188 190 192 190 202 205 200 211 188 187 203 241 270 289
198 195 194 192 193 190 183 176 180 193 192 191 198 197 192 192 199 197 194 199 209 214 201 192 189 187 188 194 189 197 207 198 210 219 213 208 217 197 195 194 194 245 283
199 196 191 187 187 185 185 183 182 189 194 194 192 192 193 200 204 198 199 208 213 208 194 191 189 189 186 190 181 198 209 192 211 221 214 217 227 211 209 199 193 196 245
209 198 190 188 190 189 185 181 185 191 194 195 195 194 195 200 202 201 211 214 216 212 194 202 195 192 190 192 191 200 204 184 210 206 189 218 232 221 207 200 200 202 210
206 200 197 185 181 182 180 184 189 186 186 193 194 190 191 194 189 203 222 221 215 203 197 196 188 190 200 195 191 206 194 192 207 208 198 223 217 210 200 183 182 191 189
208 198 190 176 171 180 188 194 196 194 195 191 190 197 193 182 187 208 219 209 202 194 190 180 180 190 201 195 197 208 203 200 206 212 204 223 200 195 201 184 194 199 197
223 193 174 179 186 191 192 197 202 201 194 183 186 196 194 188 196 213 217 206 204 199 190 177 180 197 211 204 203 204 209 208 212 209 204 212 187 193 197 194 197 206 199
249 195 190 194 196 194 193 194 202 197 188 183 187 199 203 201 201 202 211 211 207 205 205 200 197 205 213 211 206 201 209 213 215 214 211 208 203 203 201 200 204 194 186
310 238 219 217 206 194 195 197 200 194 189 187 197 207 205 200 200 200 210 215 216 216 209 203 208 214 216 219 212 210 212 211 213 219 220 214 209 201 198 200 201 190 186
271 262 242 231 224 208 201 196 200 200 185 192 205 199 189 188 197 202 202 207 216 216 205 211 217 224 229 228 209 203 208 205 209 219 227 226 220 213 211 212 202 191 191
258 269 264 229 227 223 208 203 201 189 188 199 199 189 185 188 197 200 202 210 217 212 217 226 224 230 237 228 218 207 200 204 214 218 223 232 224 209 215 221 214 215 218
261 253 250 252 240 180 181 175 158 171 186 195 194 189 186 195 194 193 208 217 211 211 221 229 228 231 241 228 220 211 205 210 223 225 222 224 232 224 212 213 218 229 231
262 254 252 244 194 135 165 153 156 161 164 184 199 200 190 197 196 204 217 219 210 214 220 223 223 224 237 221 209 191 201 223 240 242 232 223 229 231 210 203 215 235 253
335 336 345 46 68 53 128 144 171 172 188 200 203 200 196 200 206 214 216 211 208 219 219 224 224 222 233 227 211 191 195 225 246 252 245 236 232 229 207 207 211 228 244
312 22 47 36 315 158 127 148 192 214 221 204 184 185 194 210 207 209 212 205 206 212 218 226 235 231 232 231 213 196 196 214 231 244 252 248 239 234 220 214 220 227 227
334 18 53 348 318 149 144 164 228 253 222 171 162 180 196 221 206 190 202 190 187 203 224 234 253 252 238 227 220 208 208 207 216 234 244 243 235 232 221 216 227 223 208
323 329 132 4 343 274 174 184 245 260 204 177 177 194 211 209 208 194 202 205 198 206 223 227 237 251 244 232 226 220 223 223 221 234 240 243 229 218 222 225 215 201 203
317 299 159 161 288 269 191 197 238 266 211 206 213 206 208 234 236 218 207 208 215 215 221 228 237 245 244 237 228 222 223 228 233 247 246 226 207 196 212 228 222 212 212
310 296 224 212 259 271 192 190 192 143 232 258 258 250 230 237 239 235 226 223 225 213 212 223 222 226 241 239 221 211 218 217 221 214 212 211 204 216 228 230 228 213 202
326 312 265 243 256 234 219 226 214 184 189 249 262 262 250 244 240 247 281 275 244 245 237 231 224 232 239 248 227 224 230 224 188 166 207 224 223 223 227 233 238 233 229